Home > Weather > Missoula > Past weeks

Flag for U.S.A. Weather for the Past 2 Weeks in Missoula, Montana, U.S.A.

Now
24 °F

Ice fog.


Feels Like: 24 °F
Forecast: 21 / 45 °F
Wind: No wind

Location: Missoula International Airport

Current Time: Feb 10, 2016 at 12:26:50 AM

Latest Report: Feb 9, 2016 at 11:57 PM


Visibility: 1 mi

Pressure: 30.30 "Hg (26.78 "Hg at 971m altitude)

Humidity: 96%

Dew point: 23 °F

Location of MissoulaLocation

Historic Weather in Missoula — Graph

°F

Missoula Temperature Yesterday

Maximum temperature yesterday: 39 °F (at 3:53 PM)
Minimum temperature yesterday: 17 °F (at 7:53 AM)
Average temperature yesterday: 28 °F

High & Low Weather Summary for the Past Weeks

 TemperatureHumidityPressure
High42 °F (Feb 6, 4:53 AM)100% (Jan 27, 9:53 PM)30.74 "Hg (Jan 27, 9:53 PM)
Low15 °F (Feb 3, 7:00 AM)51% (Feb 7, 3:53 PM)29.68 "Hg (Jan 29, 4:53 PM)
Average30 °F83%30.28 "Hg
* Reported Jan 25 10:53 PM — Feb 9 10:53 PM, Missoula, Weather by CustomWeather, © 2016

Note: Actual official high and low records may vary slightly from our data, if they occured in-between our weather recording intervals... More about our weather records

Advertising

Missoula Weather History for the Previous 24 Hours

 ConditionsComfort  
Time TempWeatherWind HumidityBarometerVisibility
10:53 PM
Tue, Feb 9
29 °FClear.No wind89%30.40 "Hg10 mi
9:53 PM32 °FClear.No wind85%30.40 "Hg10 mi
8:53 PM30 °FClear.No wind89%30.40 "Hg10 mi
7:53 PM33 °FClear.No wind82%30.41 "Hg10 mi
6:53 PM35 °FClear.3 mph78%30.42 "Hg10 mi
5:53 PM38 °FClear.No wind73%30.40 "Hg10 mi
4:53 PM39 °FSunny.No wind70%30.41 "Hg10 mi
3:53 PM39 °FSunny.No wind70%30.43 "Hg10 mi
2:53 PM37 °FSunny.No wind76%30.45 "Hg10 mi
1:53 PM35 °FSunny.No wind82%30.49 "Hg9 mi
12:53 PM30 °FIce fog.No wind89%30.55 "Hg6 mi
11:59 AM28 °FIce fog.No wind93%30.48 "Hg2 mi
10:53 AM24 °FIce fog.No wind100%30.63 "Hg0 mi
9:53 AM22 °FIce fog.No wind92%30.64 "Hg0 mi
8:04 AM17 °FIce fog.No wind92%30.53 "Hg1 mi
7:53 AM17 °FIce fog.No wind88%30.66 "Hg1 mi
6:53 AM20 °FClear.No wind92%30.65 "Hg8 mi
5:53 AM23 °FClear.No wind88%30.64 "Hg9 mi
4:55 AM24 °FIce fog.No wind96%30.54 "Hg1 mi
3:53 AM25 °FClear.3 mph88%30.65 "Hg10 mi
2:53 AM24 °FClear.No wind91%30.66 "Hg10 mi
1:53 AM26 °FClear.No wind84%30.65 "Hg10 mi
12:53 AM26 °FClear.No wind84%30.66 "Hg10 mi
Weather by CustomWeather, © 2016

See weather overviewHow to use our weather pages